| time (UTC) | temp F | wind direction | speed MPH | gust MPH | rain 1hr in | rain 24hr in | rain mn in | humidity % | barometer mb |
| 20260506185404 | 79 | 203 | 4.0 | 8.0 | 0.00 | 0.00 | 0.00 | 83 | 1015.9 |
| 20260506184504 | 79 | 191 | 4.0 | 9.0 | 0.00 | 0.00 | 0.00 | 84 | 1015.9 |
| 20260506183604 | 78 | 204 | 4.0 | 9.0 | 0.00 | 0.00 | 0.00 | 84 | 1016.0 |
| 20260506182703 | 78 | 206 | 3.0 | 8.0 | 0.00 | 0.00 | 0.00 | 86 | 1016.0 |
| 20260506181825 | 77 | 207 | 4.0 | 11.0 | 0.00 | 0.00 | 0.00 | 86 | 1016.1 |
| 20260506180924 | 78 | 192 | 5.0 | 11.0 | 0.00 | 0.00 | 0.00 | 84 | 1016.2 |
| 20260506180004 | 78 | 185 | 5.0 | 11.0 | 0.00 | 0.00 | 0.00 | 84 | 1016.0 |
| 20260506175404 | 78 | 195 | 5.0 | 11.0 | 0.00 | 0.00 | 0.00 | 85 | 1015.9 |
| 20260506174524 | 77 | 208 | 4.0 | 9.0 | 0.00 | 0.00 | 0.00 | 86 | 1016.1 |
| 20260506173603 | 76 | 202 | 3.0 | 11.0 | 0.00 | 0.00 | 0.00 | 87 | 1016.5 |
| 20260506172703 | 76 | 204 | 4.0 | 11.0 | 0.00 | 0.00 | 0.00 | 87 | 1016.7 |
| 20260506171803 | 75 | 200 | 5.0 | 13.0 | 0.00 | 0.00 | 0.00 | 88 | 1016.5 |
| 20260506170903 | 75 | 195 | 5.0 | 12.0 | 0.00 | 0.00 | 0.00 | 87 | 1016.5 |
| 20260506170004 | 75 | 192 | 5.0 | 11.0 | 0.00 | 0.00 | 0.00 | 88 | 1016.7 |
| 20260506165403 | 75 | 192 | 5.0 | 12.0 | 0.00 | 0.00 | 0.00 | 88 | 1016.7 |
| 20260506164504 | 75 | 195 | 4.0 | 12.0 | 0.00 | 0.00 | 0.00 | 88 | 1016.6 |
| 20260506163603 | 75 | 191 | 3.0 | 9.0 | 0.00 | 0.00 | 0.00 | 88 | 1016.9 |
| 20260506162704 | 75 | 197 | 4.0 | 10.0 | 0.00 | 0.00 | 0.00 | 88 | 1017.0 |
| 20260506161803 | 75 | 197 | 4.0 | 10.0 | 0.00 | 0.00 | 0.00 | 87 | 1017.0 |
| 20260506160926 | 75 | 197 | 4.0 | 11.0 | 0.00 | 0.00 | 0.00 | 87 | 1016.9 |
| 20260506160026 | 75 | 195 | 4.0 | 10.0 | 0.00 | 0.00 | 0.00 | 88 | 1017.0 |
| 20260506155405 | 75 | 199 | 3.0 | 8.0 | 0.00 | 0.00 | 0.00 | 88 | 1017.1 |
| 20260506154505 | 75 | 213 | 4.0 | 10.0 | 0.00 | 0.00 | 0.00 | 88 | 1017.4 |
| 20260506153605 | 75 | 218 | 4.0 | 10.0 | 0.00 | 0.00 | 0.00 | 87 | 1017.3 |
| 20260506152705 | 75 | 217 | 4.0 | 11.0 | 0.00 | 0.00 | 0.00 | 88 | 1017.1 |
| 20260506151805 | 75 | 212 | 3.0 | 8.0 | 0.00 | 0.00 | 0.00 | 88 | 1017.3 |
| 20260506150905 | 75 | 205 | 3.0 | 10.0 | 0.00 | 0.00 | 0.00 | 88 | 1017.1 |
| 20260506150005 | 74 | 214 | 3.0 | 10.0 | 0.00 | 0.00 | 0.00 | 87 | 1017.3 |
| 20260506145405 | 74 | 208 | 3.0 | 8.0 | 0.00 | 0.00 | 0.00 | 88 | 1017.4 |
| 20260506144505 | 74 | 200 | 2.0 | 9.0 | 0.00 | 0.00 | 0.00 | 89 | 1017.3 |
| 20260506143605 | 73 | 221 | 3.0 | 10.0 | 0.00 | 0.00 | 0.00 | 90 | 1017.3 |
| 20260506142704 | 73 | 220 | 3.0 | 9.0 | 0.00 | 0.00 | 0.00 | 90 | 1017.5 |
| 20260506141805 | 72 | 213 | 2.0 | 6.0 | 0.00 | 0.00 | 0.00 | 90 | 1017.4 |
| 20260506140904 | 72 | 228 | 2.0 | 9.0 | 0.00 | 0.00 | 0.00 | 89 | 1017.4 |
| 20260506140005 | 72 | 260 | 2.0 | 8.0 | 0.00 | 0.00 | 0.00 | 90 | 1017.2 |
| 20260506135405 | 72 | 237 | 3.0 | 7.0 | 0.00 | 0.00 | 0.00 | 91 | 1017.2 |
| 20260506134504 | 71 | 242 | 2.0 | 12.0 | 0.00 | 0.00 | 0.00 | 92 | 1017.1 |
| 20260506133604 | 71 | 224 | 1.0 | 6.0 | 0.00 | 0.00 | 0.00 | 93 | 1017.1 |
| 20260506132704 | 70 | 218 | 2.0 | 7.0 | 0.00 | 0.00 | 0.00 | 94 | 1016.9 |
| 20260506131825 | 69 | 229 | 2.0 | 6.0 | 0.00 | 0.00 | 0.00 | 95 | 1017.2 |
| 20260506130904 | 69 | 223 | 1.0 | 4.0 | 0.00 | 0.00 | 0.00 | 95 | 1017.0 |
| 20260506130005 | 69 | 222 | 2.0 | 7.0 | 0.00 | 0.00 | 0.00 | 95 | 1017.0 |
| 20260506125404 | 69 | 232 | 2.0 | 7.0 | 0.00 | 0.00 | 0.00 | 95 | 1016.9 |
| 20260506124504 | 68 | 201 | 2.0 | 5.0 | 0.00 | 0.00 | 0.00 | 96 | 1016.8 |
| 20260506123604 | 68 | 186 | 1.0 | 5.0 | 0.00 | 0.00 | 0.00 | 97 | 1016.5 |
| 20260506122704 | 68 | 202 | 2.0 | 5.0 | 0.00 | 0.00 | 0.00 | 97 | 1016.5 |
| 20260506121804 | 68 | 192 | 2.0 | 5.0 | 0.00 | 0.00 | 0.00 | 97 | 1016.2 |
| 20260506120904 | 68 | 202 | 2.0 | 5.0 | 0.00 | 0.00 | 0.00 | 97 | 1016.2 |
| 20260506120025 | 68 | 201 | 1.0 | 4.0 | 0.00 | 0.00 | 0.00 | 97 | 1016.2 |
| 20260506115404 | 68 | 187 | 1.0 | 4.0 | 0.00 | 0.00 | 0.00 | 97 | 1016.1 |
| 20260506114504 | 67 | 196 | 1.0 | 4.0 | 0.00 | 0.00 | 0.00 | 97 | 1016.0 |
| 20260506113604 | 67 | 204 | 0.0 | 3.0 | 0.00 | 0.00 | 0.00 | 97 | 1015.8 |
| 20260506112704 | 67 | 216 | 1.0 | 4.0 | 0.00 | 0.00 | 0.00 | 97 | 1015.7 |
| 20260506111825 | 67 | 217 | 1.0 | 6.0 | 0.00 | 0.00 | 0.00 | 97 | 1015.5 |
| 20260506110904 | 67 | 189 | 2.0 | 4.0 | 0.00 | 0.00 | 0.00 | 97 | 1015.3 |
| 20260506110004 | 67 | 215 | 1.0 | 4.0 | 0.00 | 0.00 | 0.00 | 97 | 1015.2 |
| 20260506105404 | 67 | 226 | 0.0 | 2.0 | 0.00 | 0.00 | 0.00 | 97 | 1015.2 |
| 20260506104525 | 67 | 227 | 0.0 | 1.0 | 0.00 | 0.00 | 0.00 | 97 | 1015.1 |
| 20260506103604 | 67 | 196 | 0.0 | 3.0 | 0.00 | 0.00 | 0.00 | 97 | 1014.7 |
| 20260506102725 | 67 | 197 | 1.0 | 4.0 | 0.00 | 0.00 | 0.00 | 97 | 1014.4 |
| 20260506101825 | 67 | 199 | 2.0 | 6.0 | 0.00 | 0.00 | 0.00 | 97 | 1014.1 |
| 20260506100904 | 67 | 168 | 1.0 | 4.0 | 0.00 | 0.00 | 0.00 | 97 | 1014.0 |
| 20260506100004 | 66 | 165 | 1.0 | 5.0 | 0.00 | 0.00 | 0.00 | 97 | 1013.9 |
| 20260506095404 | 66 | 154 | 1.0 | 4.0 | 0.00 | 0.00 | 0.00 | 97 | 1013.9 |
| 20260506094504 | 66 | 146 | 2.0 | 5.0 | 0.00 | 0.00 | 0.00 | 97 | 1013.8 |
| 20260506093604 | 66 | 146 | 2.0 | 5.0 | 0.00 | 0.00 | 0.00 | 97 | 1013.7 |
| 20260506092703 | 66 | 146 | 2.0 | 3.0 | 0.00 | 0.00 | 0.00 | 96 | 1013.8 |
| 20260506091825 | 66 | 141 | 1.0 | 3.0 | 0.00 | 0.00 | 0.00 | 96 | 1013.7 |
| 20260506090924 | 66 | 152 | 0.0 | 2.0 | 0.00 | 0.00 | 0.00 | 95 | 1013.8 |
| 20260506090003 | 66 | 155 | 0.0 | 3.0 | 0.00 | 0.00 | 0.00 | 95 | 1013.7 |
| 20260506085403 | 67 | 143 | 2.0 | 5.0 | 0.00 | 0.00 | 0.00 | 94 | 1013.8 |
| 20260506084503 | 67 | 140 | 2.0 | 5.0 | 0.00 | 0.00 | 0.00 | 94 | 1013.7 |
| 20260506083603 | 67 | 120 | 1.0 | 4.0 | 0.00 | 0.00 | 0.00 | 94 | 1014.0 |
| 20260506082703 | 67 | 142 | 1.0 | 3.0 | 0.00 | 0.00 | 0.00 | 94 | 1013.9 |
| 20260506081804 | 67 | 148 | 2.0 | 4.0 | 0.00 | 0.00 | 0.00 | 93 | 1013.9 |
| 20260506080925 | 67 | 149 | 1.0 | 5.0 | 0.00 | 0.00 | 0.00 | 93 | 1013.7 |
| 20260506072703 | 68 | 181 | 1.0 | 3.0 | 0.00 | 0.00 | 0.00 | 93 | 1014.1 |
| 20260506071803 | 67 | 182 | 1.0 | 3.0 | 0.00 | 0.00 | 0.00 | 92 | 1014.0 |
| 20260506070905 | 67 | 195 | 0.0 | 3.0 | 0.00 | 0.00 | 0.00 | 92 | 1014.0 |
| 20260506061805 | 68 | 212 | 2.0 | 9.0 | 0.00 | 0.00 | 0.00 | 89 | 1014.5 |
| 20260506060904 | 69 | 200 | 2.0 | 5.0 | 0.00 | 0.00 | 0.00 | 88 | 1014.3 |
| 20260506050926 | 70 | 196 | 2.0 | 5.0 | 0.00 | 0.00 | 0.00 | 83 | 1014.6 |
| 20260506044505 | 70 | 190 | 4.0 | 10.0 | 0.00 | 0.00 | 0.00 | 81 | 1014.6 |
| 20260506043605 | 71 | 201 | 3.0 | 8.0 | 0.00 | 0.00 | 0.00 | 80 | 1014.8 |
| 20260506042704 | 71 | 203 | 4.0 | 11.0 | 0.00 | 0.00 | 0.00 | 79 | 1014.8 |
| 20260506041804 | 71 | 200 | 5.0 | 14.0 | 0.00 | 0.00 | 0.00 | 79 | 1015.1 |
| 20260506040904 | 71 | 209 | 4.0 | 14.0 | 0.00 | 0.00 | 0.00 | 78 | 1015.3 |
| 20260506040004 | 72 | 206 | 4.0 | 10.0 | 0.00 | 0.00 | 0.00 | 78 | 1015.1 |
| 20260506035404 | 72 | 209 | 4.0 | 10.0 | 0.00 | 0.00 | 0.00 | 77 | 1015.3 |
| 20260506034504 | 72 | 205 | 5.0 | 12.0 | 0.00 | 0.00 | 0.00 | 77 | 1014.9 |
| 20260506033604 | 72 | 209 | 4.0 | 10.0 | 0.00 | 0.00 | 0.00 | 76 | 1015.1 |
| 20260506032725 | 73 | 198 | 4.0 | 11.0 | 0.00 | 0.00 | 0.00 | 76 | 1014.7 |
| 20260506031825 | 73 | 203 | 4.0 | 14.0 | 0.00 | 0.00 | 0.00 | 76 | 1014.6 |
| 20260506030925 | 73 | 208 | 3.0 | 12.0 | 0.00 | 0.00 | 0.00 | 75 | 1014.9 |
| 20260506030004 | 73 | 210 | 4.0 | 12.0 | 0.00 | 0.00 | 0.00 | 75 | 1014.7 |
| 20260506025404 | 73 | 205 | 4.0 | 12.0 | 0.00 | 0.00 | 0.00 | 75 | 1014.8 |
| 20260506024504 | 73 | 195 | 4.0 | 12.0 | 0.00 | 0.00 | 0.00 | 75 | 1014.5 |
| 20260506023625 | 73 | 201 | 3.0 | 7.0 | 0.00 | 0.00 | 0.00 | 75 | 1014.7 |
| 20260506022704 | 74 | 215 | 2.0 | 7.0 | 0.00 | 0.00 | 0.00 | 74 | 1014.7 |
| 20260506021804 | 74 | 203 | 2.0 | 6.0 | 0.00 | 0.00 | 0.00 | 74 | 1014.5 |
| 20260506020925 | 74 | 204 | 3.0 | 8.0 | 0.00 | 0.00 | 0.00 | 74 | 1014.3 |
| 20260506020004 | 74 | 172 | 3.0 | 6.0 | 0.00 | 0.00 | 0.00 | 74 | 1013.9 |
| 20260506015404 | 74 | 170 | 3.0 | 6.0 | 0.00 | 0.00 | 0.00 | 74 | 1013.9 |
| 20260506014504 | 74 | 181 | 2.0 | 5.0 | 0.00 | 0.00 | 0.00 | 74 | 1014.1 |
| 20260506013604 | 74 | 175 | 2.0 | 6.0 | 0.00 | 0.00 | 0.00 | 73 | 1014.2 |
| 20260506012704 | 74 | 178 | 2.0 | 5.0 | 0.00 | 0.00 | 0.00 | 73 | 1014.0 |
| 20260506011804 | 74 | 178 | 2.0 | 7.0 | 0.00 | 0.00 | 0.00 | 72 | 1013.8 |
| 20260506010904 | 75 | 183 | 2.0 | 6.0 | 0.00 | 0.00 | 0.00 | 72 | 1013.9 |
| 20260506010004 | 75 | 169 | 2.0 | 6.0 | 0.00 | 0.00 | 0.00 | 71 | 1013.7 |
| 20260506005404 | 75 | 162 | 3.0 | 7.0 | 0.00 | 0.00 | 0.00 | 70 | 1013.7 |
| 20260506004504 | 75 | 173 | 2.0 | 6.0 | 0.00 | 0.00 | 0.00 | 70 | 1013.6 |
| 20260506003603 | 76 | 171 | 2.0 | 5.0 | 0.00 | 0.00 | 0.00 | 70 | 1013.5 |
| 20260506002704 | 76 | 182 | 0.0 | 3.0 | 0.00 | 0.00 | 0.00 | 69 | 1013.6 |
| 20260506001803 | 77 | 166 | 1.0 | 4.0 | 0.00 | 0.00 | 0.00 | 67 | 1013.6 |
| 20260506000903 | 77 | 161 | 2.0 | 5.0 | 0.00 | 0.00 | 0.00 | 67 | 1013.5 |
| 20260506000004 | 78 | 168 | 2.0 | 6.0 | 0.00 | 0.00 | 0.00 | 65 | 1013.6 |
| 20260505235404 | 78 | 177 | 2.0 | 6.0 | 0.00 | 0.00 | 0.00 | 64 | 1013.7 |
| 20260505234503 | 79 | 177 | 2.0 | 7.0 | 0.00 | 0.00 | 0.00 | 63 | 1013.8 |
| 20260505233603 | 79 | 182 | 3.0 | 6.0 | 0.00 | 0.00 | 0.00 | 63 | 1013.8 |
| 20260505232703 | 79 | 165 | 4.0 | 9.0 | 0.00 | 0.00 | 0.00 | 61 | 1013.8 |
| 20260505231803 | 80 | 174 | 3.0 | 8.0 | 0.00 | 0.00 | 0.00 | 62 | 1013.9 |
| 20260505230903 | 79 | 175 | 3.0 | 7.0 | 0.00 | 0.00 | 0.00 | 62 | 1013.9 |
| 20260505230024 | 79 | 199 | 2.0 | 6.0 | 0.00 | 0.00 | 0.00 | 61 | 1014.0 |
| 20260505225403 | 79 | 191 | 2.0 | 6.0 | 0.00 | 0.00 | 0.00 | 60 | 1013.9 |
| 20260505224503 | 79 | 203 | 3.0 | 8.0 | 0.00 | 0.00 | 0.00 | 60 | 1014.0 |
| 20260505223603 | 79 | 208 | 3.0 | 9.0 | 0.00 | 0.00 | 0.00 | 58 | 1013.9 |
| 20260505222703 | 79 | 211 | 3.0 | 12.0 | 0.00 | 0.00 | 0.00 | 58 | 1013.9 |
| 20260505221803 | 79 | 198 | 4.0 | 11.0 | 0.00 | 0.00 | 0.00 | 57 | 1013.9 |
| 20260505220903 | 80 | 204 | 5.0 | 10.0 | 0.00 | 0.00 | 0.00 | 56 | 1013.8 |
| 20260505220005 | 80 | 204 | 4.0 | 10.0 | 0.00 | 0.00 | 0.00 | 57 | 1013.9 |
| 20260505215405 | 81 | 191 | 4.0 | 11.0 | 0.00 | 0.00 | 0.00 | 55 | 1013.8 |
| 20260505214526 | 82 | 184 | 3.0 | 9.0 | 0.00 | 0.00 | 0.00 | 55 | 1013.9 |
| 20260505213605 | 81 | 182 | 3.0 | 9.0 | 0.00 | 0.00 | 0.00 | 56 | 1014.1 |
| 20260505212726 | 81 | 171 | 5.0 | 10.0 | 0.00 | 0.00 | 0.00 | 58 | 1014.0 |
| 20260505211805 | 80 | 162 | 5.0 | 11.0 | 0.00 | 0.00 | 0.00 | 55 | 1013.9 |
| 20260505210925 | 81 | 169 | 4.0 | 9.0 | 0.00 | 0.00 | 0.00 | 55 | 1013.8 |
| 20260505210004 | 80 | 174 | 6.0 | 12.0 | 0.00 | 0.00 | 0.00 | 54 | 1014.2 |
| 20260505205404 | 80 | 175 | 5.0 | 11.0 | 0.00 | 0.00 | 0.00 | 53 | 1014.1 |
| 20260505204505 | 80 | 207 | 4.0 | 8.0 | 0.00 | 0.00 | 0.00 | 53 | 1014.3 |
| 20260505203604 | 80 | 194 | 4.0 | 10.0 | 0.00 | 0.00 | 0.00 | 52 | 1014.4 |
| 20260505202704 | 80 | 183 | 3.0 | 9.0 | 0.00 | 0.00 | 0.00 | 52 | 1014.4 |
| 20260505201825 | 80 | 182 | 5.0 | 15.0 | 0.00 | 0.00 | 0.00 | 51 | 1014.6 |
| 20260505200904 | 80 | 174 | 4.0 | 12.0 | 0.00 | 0.00 | 0.00 | 53 | 1014.6 |
| 20260505200004 | 79 | 180 | 5.0 | 11.0 | 0.00 | 0.00 | 0.00 | 52 | 1014.8 |
| 20260505195404 | 79 | 199 | 5.0 | 10.0 | 0.00 | 0.00 | 0.00 | 51 | 1015.1 |
| 20260505194505 | 79 | 183 | 4.0 | 10.0 | 0.00 | 0.00 | 0.00 | 54 | 1014.9 |
| 20260505193605 | 79 | 168 | 5.0 | 9.0 | 0.00 | 0.00 | 0.00 | 54 | 1015.2 |
| 20260505192704 | 78 | 161 | 6.0 | 13.0 | 0.00 | 0.00 | 0.00 | 55 | 1015.3 |
| 20260505191825 | 78 | 172 | 5.0 | 13.0 | 0.00 | 0.00 | 0.00 | 54 | 1015.3 |
| 20260505190904 | 78 | 189 | 5.0 | 14.0 | 0.00 | 0.00 | 0.00 | 54 | 1015.6 |
| 20260505190004 | 78 | 172 | 5.0 | 12.0 | 0.00 | 0.00 | 0.00 | 56 | 1015.5 |